sat.trackr.live / text

‹ back to catalog

STARLINK-35346

NORAD 66179 · 2025-243C

PAYLOAD ACTIVE UNKNOWN

§ Identity

Operator
Country
US
Launch date
2025-10-26
Launch site
AFETR
Launch vehicle
Mass (kg)
RCS (m²)

Purposes: comms

External: N2YO · Heavens-Above · Gunter

§ Orbital elements

Epoch: 2026-05-24T23:44:50.748000Z

Period
94.11 min
Inclination
53.1570°
Eccentricity
0.0001088
Mean motion
15.30203167 rev/d
Perigee alt
474.5 km
Apogee alt
476.0 km
Semi-major
6,853.3 km
B*
1.0187e-3
RAAN
250.9868°
Arg perigee
73.2288°
Mean anomaly
286.8832°
Rev number
3,233

§ Raw data

STARLINK-353461 66179U 25243C   26144.98947625  .00029936  00000+0  10187-2 0  99992 66179  53.1570 250.9868 0001088  73.2288 286.8832 15.30203167 32333

JSON: /api/v1/satellites/66179 · /tle

For live sub-satellite position, see the globe view (requires WebGL).

§ Visibility from observer

Set your observer location to see the next 7 days of passes ≥ 10°. The values pass through the URL so the page stays shareable.

No JS? Fill the form by hand. The geolocation button needs JavaScript.